Time,B instrument,Bx,By,Bz,sigma B,Ion instrument,Status,Tp_par,Tp_perp,carrot,r_sun,clat,clong,earth_he_angle,n_p,vp_x,vp_y,vp_z,vth_p_par,vth_p_perp
1980-08-17 01:00:39,-1,nan,nan,nan,nan,1,3,nan,nan,1698,0.96695125,1.0664091,263.64825,103.08185,nan,309.788,12.4952,9.97724,nan,nan
1980-08-17 01:11:27,1,-2.0,-6.9,4.4,0.0,1,1,26098.2,26748.3,1698,0.96696949,1.0657206,263.54877,103.08002,5.42999,314.949,12.4975,8.51567,20.7569,21.0139
1980-08-17 01:22:15,1,-2.3,-7.1,4.0,0.0,1,1,26853.5,20247.9,1698,0.96698779,1.065033,263.4454,103.0782,5.41643,318.852,10.5701,12.2877,21.0551,18.283
1980-08-17 01:33:03,1,-1.9,-7.0,3.6,0.0,1,1,27463.0,26205.4,1698,0.96700609,1.0643454,263.34592,103.07639,5.55674,316.804,14.778,8.92703,21.2928,20.7995
1980-08-17 01:43:53,1,-1.3,-7.2,2.9,0.0,1,1,32286.2,23554.8,1698,0.96702272,1.0637207,263.24271,103.07474,5.05511,313.604,13.8377,13.508,23.087,19.7196
1980-08-17 01:54:41,1,-0.9,-7.0,2.5,0.0,1,1,31963.6,24926.0,1698,0.96704096,1.0630331,263.14325,103.07292,5.38986,313.904,14.952,20.0488,22.9713,20.2854
1980-08-17 02:05:29,1,-1.3,-7.2,2.9,0.0,1,1,30744.0,26777.5,1698,0.9670592,1.0623455,263.04376,103.07109,4.97597,317.162,15.9172,16.8183,22.5288,21.0253
1980-08-17 02:16:17,1,-2.4,-6.8,2.4,0.0,1,1,35767.6,26604.7,1698,0.96707743,1.0616579,262.94037,103.06927,5.48602,318.623,15.2709,22.7928,24.2998,20.9574
1980-08-17 02:27:05,-1,nan,nan,nan,nan,1,4,nan,nan,1698,0.96709567,1.0609703,262.84088,103.06744,nan,nan,nan,nan,nan,nan
1980-08-17 02:38:29,-1,nan,nan,nan,nan,1,3,nan,nan,1698,0.96711385,1.0602827,262.73361,103.06563,nan,302.932,12.6967,47.3109,nan,nan
1980-08-17 02:48:41,1,-1.7,-6.1,1.6,0.0,1,1,32627.8,23249.8,1698,0.96713042,1.0596581,262.63818,103.06396,4.60461,318.223,13.4922,26.1846,23.2088,19.5915
1980-08-17 03:24:21,-1,nan,nan,nan,nan,1,3,nan,nan,1698,0.96718997,1.0574083,262.30411,103.058,nan,327.314,11.951,13.0244,nan,nan
1980-08-17 03:29:45,1,-4.23333,-5.56667,2.33333,0.270801,1,1,33778.6,30328.3,1698,0.96719819,1.0570955,262.2525,103.05717,4.82923,329.128,9.33488,13.1639,23.6145,22.376
1980-08-17 03:35:09,1,-4.33333,-5.86667,3.26667,0.282843,1,1,27321.1,23601.2,1698,0.96720815,1.0567207,262.20462,103.05618,4.59275,329.371,11.8695,15.2954,21.2377,19.739
1980-08-17 03:37:17,1,-3.6,-5.8,3.1,0.424264,1,1,42218.3,29286.2,1698,0.96721143,1.0565958,262.18475,103.05585,4.17558,327.96,11.483,11.7743,26.4003,21.9882
1980-08-17 03:42:41,1,-3.9,-5.66667,2.93333,0.290593,1,1,40881.7,29677.2,1698,0.96721971,1.056283,262.13315,103.05502,4.53557,328.922,9.75746,17.6267,25.979,22.1345
1980-08-17 03:48:05,1,-3.66667,-5.86667,3.1,0.210819,1,1,36083.3,29441.4,1698,0.9672296,1.0559082,262.08139,103.05403,4.95034,326.092,9.56842,14.9171,24.4068,22.0464
1980-08-17 03:58:53,1,-4.23333,-5.56667,2.33333,0.270801,1,1,41070.3,24834.3,1698,0.96724612,1.0552835,261.98206,103.05237,5.06855,332.106,6.28367,22.7966,26.0388,20.2481
1980-08-17 04:04:17,1,-4.16667,-5.6,1.66667,0.24037,1,1,49964.2,32827.2,1698,0.96725601,1.0549078,261.9303,103.05138,5.58905,330.701,6.65696,22.1534,28.7202,23.2796
1980-08-17 04:09:41,1,-3.53333,-6.0,1.63333,0.194365,1,1,36286.8,24861.9,1698,0.96726424,1.0545959,261.8826,103.05055,4.74787,330.452,7.77901,25.1117,24.4755,20.2593
1980-08-17 04:15:05,1,-3.43333,-6.2,3.5,0.298142,1,1,39324.5,28426.3,1698,0.96727413,1.0542212,261.83081,103.04956,4.71868,326.697,11.1182,14.6144,25.4794,21.663
1980-08-17 04:20:29,1,-2.96667,-6.13333,2.83333,0.282843,1,1,65234.7,36054.7,1698,0.96728235,1.0539083,261.77921,103.04872,5.66736,326.133,8.14611,18.675,32.8169,24.3971
1980-08-17 04:25:53,1,-3.1,-6.2,2.83333,0.188562,1,1,68479.8,39688.0,1698,0.96729058,1.0535965,261.73151,103.0479,5.52892,325.884,10.5718,22.6613,33.6232,25.5969
1980-08-17 04:31:17,1,-2.5,-6.2,2.9,0.34641,1,1,71029.1,45798.4,1698,0.96730047,1.0532217,261.67972,103.04691,6.15566,324.384,8.27985,21.7749,34.2433,27.4968
1980-08-17 04:36:41,1,-0.9,-6.53333,2.9,0.149071,1,1,54686.1,35189.1,1698,0.9673087,1.0529089,261.62811,103.04607,5.14354,312.15,13.6833,25.2913,30.0467,24.1025
1980-08-17 04:47:29,1,-3.93333,-5.36667,1.06667,0.216025,1,1,46650.2,33004.1,1698,0.96732682,1.0522213,261.52863,103.04425,4.93606,327.115,10.4003,28.8303,27.7514,23.3422
1980-08-17 04:52:53,1,-2.33333,-6.5,2.0,0.426875,1,1,38468.8,30558.7,1698,0.96733505,1.0519094,261.47702,103.04341,5.38972,319.265,12.4602,20.8882,25.2007,22.4608
1980-08-17 04:58:17,1,-3.83333,-6.0,1.33333,0.343188,1,1,54200.1,30153.2,1698,0.96734494,1.0515347,261.42523,103.04242,5.15258,325.444,10.9525,25.0208,29.9128,22.3113
1980-08-17 05:03:41,1,-3.93333,-6.3,2.96667,0.253859,1,1,39959.8,25618.3,1698,0.96735317,1.0512218,261.37753,103.0416,5.46096,327.017,8.99822,20.0074,25.6844,20.5652
1980-08-17 05:09:05,1,-4.13333,-5.93333,3.16667,0.270801,1,1,55221.1,37371.9,1698,0.96736306,1.0508471,261.32578,103.0406,5.11246,327.554,10.8162,19.5057,30.1933,24.8388
1980-08-17 05:14:29,1,-3.73333,-6.06667,3.1,0.210819,1,1,58330.6,32563.6,1698,0.96737123,1.0505352,261.27414,103.03976,4.53166,326.303,11.415,19.1194,31.0317,23.1859
1980-08-17 05:19:53,1,-5.16667,-5.63333,4.06667,0.270801,1,1,64786.7,40090.1,1698,0.96737945,1.0502224,261.22644,103.03894,5.20314,334.892,3.54425,14.088,32.704,25.7263
1980-08-17 05:30:41,1,-5.3,-4.66667,3.73333,0.42947,1,1,63827.2,41751.7,1698,0.96739757,1.0495358,261.12305,103.03711,5.60508,335.358,5.20196,12.6867,32.4609,26.254
1980-08-17 05:36:05,1,-2.9,-6.0,5.1,0.0,1,1,61860.1,30402.0,1698,0.96740741,1.049161,261.07129,103.03612,4.37586,322.829,9.31413,9.95119,31.9568,22.4031
1980-08-17 05:41:29,1,-3.26667,-6.06667,4.96667,0.282843,1,1,41554.7,35583.5,1698,0.96741563,1.0488482,261.02356,103.03528,4.44088,320.69,16.0526,8.78081,26.192,24.2372
1980-08-17 05:46:53,1,-3.06667,-5.8,5.1,0.298142,1,1,52221.0,31071.3,1698,0.96742386,1.0485363,260.97195,103.03445,4.41384,323.351,11.4713,8.26038,29.3616,22.6484
1980-08-17 05:52:17,1,-2.9,-6.0,5.1,0.0,1,1,53047.9,34083.6,1698,0.96743369,1.0481615,260.9202,103.03346,4.48403,321.15,10.619,5.98726,29.5932,23.7209
1980-08-17 05:57:41,1,-2.8,-6.0,3.63333,0.188562,1,1,45726.3,30211.9,1698,0.96744192,1.0478487,260.87247,103.03262,5.15702,322.057,12.053,17.3101,27.4752,22.333
1980-08-17 06:03:05,1,-3.0,-5.6,4.7,8.88178e-16,1,1,46210.6,36330.7,1698,0.96745175,1.0474739,260.82071,103.03163,4.86839,322.893,15.4648,9.83313,27.6203,24.4903
1980-08-17 06:08:29,1,-2.9,-6.0,5.36667,0.188562,1,1,43145.0,27859.2,1698,0.96745992,1.0471611,260.76907,103.03079,4.7632,318.751,10.6595,8.42566,26.6884,21.4458
1980-08-17 06:13:53,1,-2.13333,-6.06667,6.0,0.210819,1,1,36827.3,30576.6,1698,0.96746814,1.0468493,260.72137,103.02997,4.07776,312.169,11.7591,2.27132,24.6571,22.4674
1980-08-17 06:19:17,1,-3.03333,-5.73333,5.63333,0.282843,1,1,50173.9,26480.4,1698,0.96747798,1.0464745,260.66962,103.02898,4.01456,316.35,12.0646,7.92249,28.7804,20.9084
1980-08-17 06:24:41,1,-2.46667,-6.0,4.0,0.298142,1,1,37663.7,36402.7,1698,0.96748614,1.0461617,260.61798,103.02814,4.48848,317.444,17.9238,18.133,24.9356,24.5146
1980-08-17 06:30:05,1,-2.63333,-4.76667,6.3,0.194365,1,1,56089.1,28546.3,1698,0.96749598,1.0457869,260.56622,103.02715,4.73605,320.697,7.64502,5.01134,30.4297,21.7087
1980-08-17 06:35:29,1,-2.5,-5.33333,6.23333,0.278887,1,1,32016.6,29106.7,1698,0.96750414,1.0454741,260.51852,103.02632,3.68227,319.172,14.3566,7.40509,22.9904,21.9207
1980-08-17 06:40:53,1,-2.2,-5.33333,6.26667,0.323179,1,1,48796.5,25182.0,1698,0.96751237,1.0451622,260.46689,103.02548,4.05835,317.823,10.5318,5.78251,28.3826,20.3894
1980-08-17 06:46:17,1,-3.43333,-5.16667,5.76667,0.305505,1,1,34809.9,27327.9,1698,0.9675222,1.0447874,260.41513,103.02449,3.79441,322.978,17.5824,6.55028,23.9723,21.2403
1980-08-17 06:51:41,1,-1.8,-5.5,5.6,8.88178e-16,1,1,38957.4,31005.8,1698,0.96753037,1.0444746,260.36743,103.02367,4.38633,317.925,18.0886,6.93236,25.3602,22.6245
1980-08-17 06:57:05,1,-3.06667,-5.03333,6.03333,0.316228,1,1,34390.6,23509.8,1698,0.9675402,1.0440998,260.31564,103.02266,4.06474,317.211,15.606,2.23489,23.8275,19.7007
1980-08-17 07:02:29,1,-2.2,-5.36667,5.86667,0.352767,1,1,39911.5,25501.1,1698,0.96754837,1.043788,260.26404,103.02184,4.14462,316.508,12.8187,2.45278,25.6689,20.5181
1980-08-17 07:09:03,-1,nan,nan,nan,nan,1,4,nan,nan,1698,0.96755981,1.0433502,260.20428,103.02068,nan,nan,nan,nan,nan,nan
1980-08-17 07:13:15,1,-2.63333,-5.6,5.4,0.274874,1,1,39405.3,24671.1,1698,0.96756637,1.0431004,260.16455,103.02,4.15249,317.721,19.2383,11.1514,25.5056,20.1814
1980-08-17 07:18:39,1,-2.0,-5.55,6.0,0.206155,1,1,26463.3,22236.1,1698,0.96757454,1.0427885,260.11295,103.01918,3.99461,316.978,18.3241,9.56736,20.9016,19.1597
1980-08-17 07:24:03,1,-2.43333,-5.93333,4.93333,0.282843,1,1,47244.2,25885.5,1698,0.96758431,1.0424137,260.06506,103.01817,4.27148,316.652,19.7286,9.7392,27.9275,20.6722
1980-08-17 07:29:27,1,-2.2,-5.7,5.6,0.0,1,1,35824.2,27122.6,1698,0.96759248,1.0421009,260.01346,103.01735,4.22254,315.548,23.3962,7.98316,24.319,21.1604
1980-08-17 07:34:53,1,-1.86667,-5.66667,5.6,0.413656,1,1,41131.8,26245.0,1698,0.96760064,1.0417891,259.96185,103.01653,4.28852,315.886,20.7819,3.84752,26.0583,20.8152
1980-08-17 07:40:17,-1,nan,nan,nan,nan,1,3,nan,nan,1698,0.96761048,1.0414143,259.91006,103.01552,nan,316.057,19.3556,1.78253,nan,nan
1980-08-17 07:56:29,-1,nan,nan,nan,nan,1,3,nan,nan,1698,0.96763659,1.0404148,259.75897,103.01286,nan,313.156,10.011,9.47878,nan,nan
1980-08-17 08:01:53,1,-0.233333,-5.83333,4.5,0.38873,1,1,22657.1,18389.0,1698,0.96764475,1.040102,259.71127,103.01204,4.96718,303.402,15.7275,13.8155,19.3402,17.4235
1980-08-17 08:07:17,1,-0.0666667,-5.9,4.36667,0.323179,1,1,38761.2,26422.6,1698,0.96765453,1.0397272,259.65948,103.01103,5.26627,302.568,14.8607,13.7597,25.2963,20.8855
1980-08-17 08:12:41,1,-0.9,-6.4,4.63333,0.188562,1,1,26418.5,24069.6,1698,0.96766263,1.0394154,259.60788,103.01021,4.45024,303.118,16.7706,11.9658,20.8839,19.9339
1980-08-17 08:18:05,1,-1.66667,-6.03333,4.53333,0.33665,1,1,47175.1,24042.2,1698,0.96767241,1.0390406,259.56,103.0092,4.0409,312.836,15.0763,8.88188,27.9071,19.9226
1980-08-17 08:23:29,1,-1.06667,-6.26667,4.36667,0.316228,1,1,28731.7,26802.8,1698,0.96768057,1.0387278,259.50839,103.00838,4.46528,311.291,16.9581,13.1133,21.779,21.0353
1980-08-17 08:28:53,1,-1.2,-6.23333,3.63333,0.176383,1,1,36204.3,25234.3,1698,0.96768868,1.0384159,259.45676,103.00754,4.4175,310.149,16.584,17.015,24.4477,20.4105
1980-08-17 08:39:41,1,-0.333333,-5.23333,6.1,0.380058,1,1,33391.7,26440.4,1698,0.96770662,1.0377293,259.35727,103.00571,4.88827,301.897,7.94533,-2.95718,23.4789,20.8926
1980-08-17 08:45:05,1,-0.933333,-5.7,4.96667,0.48074,1,1,28611.6,21562.7,1698,0.9677164,1.0373545,259.30551,103.00471,4.51053,310.861,13.8357,7.94193,21.7335,18.8673
1980-08-17 08:50:29,1,-0.8,-5.96667,4.63333,0.444722,1,1,41781.6,24612.5,1698,0.9677245,1.0370417,259.25391,103.00389,4.8263,307.987,14.4593,9.00725,26.2634,20.1575
1980-08-17 08:55:53,1,-0.0333333,-6.23333,3.56667,0.282843,1,1,16627.8,16482.1,1698,0.96773267,1.0367298,259.20618,103.00305,5.39428,307.039,13.5155,14.2173,16.5682,16.4954
1980-08-17 09:01:17,1,0.0,-5.6,5.1,0.2,1,1,46194.8,25819.7,1698,0.96774244,1.036355,259.15442,103.00206,4.63858,304.22,15.5913,7.98584,27.6156,20.6459
1980-08-17 09:06:41,1,0.2,-5.9,4.5,0.0,1,1,16130.7,16606.7,1698,0.96775055,1.0360432,259.10278,103.00122,4.94662,304.257,16.0557,14.4057,16.3187,16.5577
1980-08-17 09:12:05,1,-0.933333,-6.0,4.86667,0.514242,1,1,40343.3,24299.8,1698,0.96776026,1.0356684,259.05493,103.00023,4.39264,309.571,14.3791,9.41186,25.8074,20.029
1980-08-17 09:17:29,1,0.866667,-5.8,5.0,0.262467,1,1,18138.1,17932.1,1698,0.96776837,1.0353565,259.0033,102.99939,5.03802,303.115,15.0917,12.2518,17.3043,17.2057
1980-08-17 09:22:53,1,0.7,-6.0,4.46667,0.249444,1,1,34755.3,24756.9,1698,0.96777654,1.0350437,258.95169,102.99857,4.39398,302.607,15.7135,10.5162,23.9535,20.2165
1980-08-17 09:28:17,1,0.566667,-4.93333,6.0,0.253859,1,1,28533.0,21978.3,1698,0.96778625,1.0346689,258.8999,102.99756,4.40187,300.78,14.5497,7.7728,21.7036,19.0483
1980-08-17 09:33:41,1,0.7,-5.73333,4.73333,0.253859,1,1,37449.9,22603.0,1698,0.96779436,1.0343571,258.8522,102.99673,4.78966,301.956,15.6042,10.9418,24.8647,19.3171
1980-08-17 09:39:05,1,0.85,-5.85,4.4,0.324037,1,1,24964.2,23267.6,1698,0.96780413,1.0339823,258.80042,102.99573,4.38902,298.877,16.9818,15.0318,20.3009,19.599
1980-08-17 09:44:29,1,0.9,-5.6,5.13333,0.188562,1,1,39444.5,24469.5,1698,0.96781224,1.0336704,258.74881,102.9949,4.51719,298.763,14.4683,10.3349,25.5183,20.0988
1980-08-17 09:49:53,1,0.533333,-5.66667,5.1,0.253859,1,1,29619.3,24455.7,1698,0.96782035,1.0333586,258.70111,102.99406,4.48647,299.417,16.6201,10.9173,22.1129,20.0932
1980-08-17 09:55:17,1,-0.7,-6.1,3.8,0.702377,1,1,36980.1,26562.8,1698,0.96783006,1.0329838,258.64932,102.99307,4.82333,305.32,18.0146,16.7051,24.7083,20.9409
1980-08-17 10:00:41,1,0.6,-5.8,4.6,0.0,1,1,28527.7,25909.1,1698,0.96783823,1.0326719,258.59772,102.99225,4.66927,299.342,16.3427,11.6,21.7016,20.6816
1980-08-17 10:06:05,1,0.0666667,-5.63333,5.56667,0.282843,1,1,40933.2,27773.6,1698,0.96784794,1.0322971,258.54984,102.99124,5.66738,301.415,12.9154,7.26945,25.9954,21.4128
1980-08-17 10:11:29,1,0.45,-5.6,5.35,0.212132,1,1,25251.7,22065.0,1698,0.96785599,1.0319843,258.49823,102.9904,4.52114,300.562,15.391,9.40343,20.4175,19.0858
1980-08-17 10:16:53,1,0.966667,-5.96667,5.26667,0.282843,1,1,35141.5,22845.9,1698,0.9678641,1.0316725,258.44662,102.98958,4.8417,297.712,13.1208,7.8774,24.0862,19.4206
1980-08-17 10:22:17,1,0.0333333,-5.83333,5.03333,0.316228,1,1,30448.9,21544.6,1698,0.96787381,1.0312977,258.39874,102.98857,4.66291,303.952,15.2265,7.04417,22.4204,18.8594
1980-08-17 10:27:41,1,0.2,-5.9,4.9,0.0,1,1,42288.4,22388.0,1698,0.96788192,1.0309849,258.34714,102.98775,5.04266,306.506,12.0792,2.29552,26.4222,19.2249
1980-08-17 10:33:05,1,0.2,-5.9,4.7,0.2,1,1,23256.1,21410.5,1698,0.96789163,1.030611,258.29535,102.98674,4.66824,303.597,15.9134,12.8986,19.5942,18.8006
1980-08-17 10:38:29,1,-0.1,-5.63333,4.9,0.149071,1,1,51678.0,23904.4,1698,0.96789974,1.0302982,258.24374,102.98592,5.42253,305.225,10.7567,10.6953,29.2086,19.8654
1980-08-17 10:43:53,1,-0.3,-5.7,4.5,0.0,1,1,25786.3,21622.3,1698,0.96790785,1.0299864,258.19601,102.98508,5.53793,307.717,14.6154,14.6397,20.6325,18.8933
1980-08-17 10:49:17,1,0.233333,-5.53333,3.83333,0.282843,1,1,34877.8,22790.6,1698,0.96791756,1.0296116,258.14426,102.98409,6.79521,305.106,11.1861,18.0954,23.9957,19.3971
1980-08-17 10:54:41,1,-0.35,-5.3,5.3,0.180278,1,1,23721.2,21717.2,1698,0.96792567,1.0292988,258.09262,102.98325,7.11097,307.107,10.4326,10.6003,19.7891,18.9348
1980-08-17 11:00:05,1,0.0333333,-5.46667,4.36667,0.282843,1,1,27196.3,20663.4,1698,0.96793538,1.0289249,258.04477,102.98225,8.46354,303.383,8.27115,14.066,21.1891,18.4697
1980-08-17 11:05:29,1,0.0,-5.3,2.1,0.0,1,1,14250.3,16489.8,1698,0.96794343,1.0286121,257.99313,102.98141,9.95953,304.899,12.6439,21.1256,15.3381,16.4993
1980-08-17 11:10:53,1,-0.533333,-4.53333,4.6,0.24037,1,1,15062.1,11672.0,1698,0.96795148,1.0283003,257.94153,102.98058,12.4103,311.124,4.72186,7.08851,15.7689,13.8813
1980-08-17 11:16:17,1,0.1,-5.15,3.5,0.287228,1,1,11054.0,11290.1,1698,0.96796119,1.0279255,257.89365,102.97958,11.0818,305.005,9.86692,12.7426,13.5089,13.6523
1980-08-17 11:21:41,1,2.13333,-4.1,2.86667,0.42947,1,1,13408.2,14602.4,1698,0.96796924,1.0276136,257.84204,102.97874,11.0751,297.926,3.08008,15.1932,14.878,15.5264
1980-08-17 11:27:05,1,0.166667,-4.8,3.96667,0.253859,1,1,9783.61,9786.56,1698,0.96797895,1.0272388,257.79025,102.97775,12.6131,306.793,10.0022,11.7648,12.7089,12.7108
1980-08-17 11:32:29,1,0.55,-4.7,4.3,0.287228,1,1,11165.3,10380.1,1698,0.967987,1.026927,257.73865,102.97691,12.3604,308.005,4.26562,10.7339,13.5767,13.0906
1980-08-17 11:37:53,-1,nan,nan,nan,nan,1,4,nan,nan,1698,0.96799511,1.0266151,257.69095,102.97609,nan,nan,nan,nan,nan,nan
1980-08-17 11:43:17,1,-0.933333,-4.5,5.2,0.149071,1,1,13710.7,10378.4,1698,0.96800476,1.0262403,257.63916,102.97508,13.1555,310.491,3.28501,7.21186,15.0448,13.0895
1980-08-17 11:48:41,1,-0.166667,-4.76667,4.9,0.194365,1,1,9013.29,8716.33,1698,0.96801287,1.0259285,257.58755,102.97426,13.8625,306.273,10.5594,11.4508,12.1983,11.9957
1980-08-17 11:54:05,1,-0.2,-4.26667,6.36667,0.397213,1,1,14145.4,11445.4,1698,0.96802253,1.0255537,257.53967,102.97325,11.5887,308.218,4.13588,6.32444,15.2815,13.7459
1980-08-17 11:59:29,1,-0.133333,-3.4,6.23333,0.194365,1,1,16818.3,13638.8,1698,0.96803057,1.0252419,257.48804,102.97241,10.0872,307.14,6.25792,1.791,16.6628,15.0054
1980-08-17 12:04:53,1,-0.9,-4.6,5.33333,0.188562,1,1,14546.2,12300.1,1698,0.96803868,1.02493,257.43643,102.97159,10.6187,310.272,3.30137,11.8478,15.4965,14.2499
1980-08-17 12:10:17,1,-1.3,-3.9,6.4,8.88178e-16,1,1,10837.9,4773.09,1698,0.96804833,1.0245552,257.38855,102.97058,25.3744,310.857,10.2152,5.93676,13.3761,8.87682
1980-08-17 12:15:41,1,-0.833333,-4.73333,5.76667,0.270801,1,1,12296.6,11264.6,1698,0.96805638,1.0242434,257.33694,102.96976,11.3645,309.312,2.06861,10.8209,14.2479,13.6369
1980-08-17 12:21:05,1,-2.13333,-4.26667,6.23333,0.270801,1,1,19177.2,14232.0,1698,0.96806604,1.0238686,257.28516,102.96875,9.77842,313.482,6.05487,6.35718,17.7931,15.3282
1980-08-17 12:26:29,1,-1.13333,-4.73333,5.46667,0.424264,1,1,13296.8,12328.0,1698,0.96807408,1.0235558,257.23355,102.96791,10.4328,308.862,4.79449,12.8492,14.816,14.2661
1980-08-17 12:31:53,1,-2.3,-5.36667,3.03333,0.24037,1,1,34300.4,21278.3,1698,0.96808213,1.0232439,257.18585,102.96709,7.46931,309.607,7.20416,21.8367,23.7962,18.7425
1980-08-17 12:39:39,-1,nan,nan,nan,nan,1,4,nan,nan,1698,0.968095,1.0227442,257.1142,102.96574,nan,nan,nan,nan,nan,nan
1980-08-17 12:45:03,1,-3.0,-3.8,6.3,0.0,1,1,38088.3,35591.1,1698,0.96810466,1.0223703,257.06241,102.96475,6.80936,314.79,14.119,22.2407,25.0757,24.2398
1980-08-17 12:50:27,1,-2.43333,-5.06667,2.36667,0.216025,1,1,50852.7,33157.0,1698,0.96811271,1.0220575,257.0108,102.96391,6.99249,314.263,13.6422,33.8049,28.9744,23.3962
1980-08-17 12:55:51,1,-0.8,-3.1,8.4,1.11022e-16,1,1,41846.1,36763.0,1698,0.96812075,1.0217457,256.95917,102.96307,7.05335,314.12,-0.2563,51.959,26.2836,24.6356
1980-08-17 13:04:17,1,-2.3,-5.8,3.86667,0.249444,1,1,61717.2,31234.0,1698,0.96813524,1.021184,256.88345,102.96158,5.21935,318.707,25.5096,32.5084,31.9199,22.7076
1980-08-17 13:09:41,1,-0.866667,0.633333,4.46667,0.305505,1,1,19316.2,16381.1,1698,0.96814328,1.0208721,256.83185,102.96074,13.8323,311.372,-4.50721,28.0683,17.8574,16.4448
1980-08-17 13:15:05,1,-1.1,-0.166667,5.36667,0.278887,1,1,16411.8,16120.7,1698,0.96815294,1.0204973,256.78006,102.95975,14.8819,312.694,-10.8342,31.2692,16.4602,16.3136
1980-08-17 13:20:29,1,-0.8,0.2,4.93333,0.188562,1,1,16770.9,14745.1,1698,0.96816093,1.0201855,256.73236,102.95891,15.5096,310.779,-4.52104,28.8142,16.6393,15.602
1980-08-17 13:25:53,1,-0.166667,0.333333,4.4,0.253859,1,1,17236.2,15363.2,1698,0.96816897,1.0198736,256.68073,102.95807,14.7721,315.457,-10.3598,26.5259,16.8686,15.9257
1980-08-17 13:31:17,1,0.2,1.1,3.33333,0.188562,1,1,14825.7,13874.6,1698,0.96817857,1.0194988,256.62897,102.95708,16.9823,315.659,-2.11779,20.2042,15.6446,15.1345
1980-08-17 13:51:39,-1,nan,nan,nan,nan,1,3,nan,nan,1698,0.9682107,1.0182505,256.43811,102.95374,nan,316.32,-6.3953,16.8628,nan,nan
1980-08-17 14:02:27,1,0.9,0.5,3.3,0.0,1,1,12227.3,14356.9,1698,0.96822834,1.0175648,256.33862,102.9519,16.874,315.151,-4.40156,16.7955,14.2077,15.3953
1980-08-17 14:13:15,1,0.9,0.5,3.3,0.0,1,1,15556.1,17340.3,1699,0.96825743,0.79714715,256.1636,102.87845,14.2868,316.245,-7.53479,16.1282,16.0254,16.9195
1980-08-17 14:15:08,-1,nan,nan,nan,nan,1,4,nan,nan,1698,0.96824914,1.0167532,256.21927,102.94974,nan,nan,nan,nan,nan,nan
1980-08-17 14:19:53,1,0.9,0.5,3.3,0.0,1,1,16705.5,16625.8,1699,0.96826804,0.79671431,256.10391,102.87735,14.406,314.472,-4.35106,15.6987,16.6069,16.5672
1980-08-17 14:30:41,1,0.9,0.5,3.7,0.0,1,1,14146.1,16884.6,1698,0.96827316,1.0158176,256.07224,102.94724,14.5488,316.421,-7.38676,14.927,15.2819,16.6956
1980-08-17 17:07:56,-1,nan,nan,nan,nan,1,3,nan,nan,1698,0.96852344,1.0060205,254.6046,102.92101,nan,307.906,-7.66905,16.2994,nan,nan
1980-08-17 17:51:08,-1,nan,nan,nan,nan,1,3,nan,nan,1698,0.96859324,1.0032759,254.19879,102.91364,nan,306.444,-11.0912,16.8023,nan,nan
1980-08-17 18:34:20,-1,nan,nan,nan,nan,1,3,nan,nan,1698,0.96866131,1.0005941,253.79707,102.90645,nan,303.077,-3.23215,17.0232,nan,nan
1980-08-17 21:15:08,-1,nan,nan,nan,nan,1,4,nan,nan,1698,0.96891487,0.99055368,252.28964,102.87949,nan,nan,nan,nan,nan,nan
1980-08-17 21:17:50,1,1.26667,1.16667,-0.7,0.210819,1,1,55998.2,48397.0,1698,0.96891803,0.99042898,252.26587,102.87915,37.5782,359.257,5.47258,30.8141,30.405,28.2662
1980-08-17 21:19:22,1,1.26667,0.266667,-0.966667,0.282843,1,1,50880.5,42924.2,1699,0.96893251,0.76942533,252.18216,102.80716,36.4637,360.805,5.06827,32.3523,28.9824,26.6201
1980-08-17 21:20:32,1,1.03333,-0.966667,-0.833333,0.270801,1,1,39606.1,40964.1,1698,0.96892273,0.99024194,252.24193,102.87865,36.1329,361.258,3.5678,31.3969,25.5705,26.0052
1980-08-17 21:22:04,1,1.35,1.55,0.375,0.319179,1,1,46616.0,45900.8,1698,0.96892583,0.99011725,252.22597,102.87831,36.7752,360.698,0.701256,28.7513,27.7412,27.5276
1980-08-17 21:24:46,1,1.3,1.9,0.1,0.0,1,1,53977.3,43668.8,1698,0.96892899,0.9899925,252.20219,102.87798,36.8997,362.411,2.2262,30.18,29.8513,26.85
1980-08-17 21:27:28,1,1.16667,1.3,-0.466667,0.54569,1,1,49514.7,42466.6,1698,0.9689337,0.98980546,252.17435,102.87747,36.1718,363.13,-0.107639,30.2194,28.5907,26.4778
1980-08-17 21:30:10,1,0.4,1.3,0.666667,0.329983,1,1,52342.2,45697.3,1698,0.96893841,0.98961842,252.15041,102.87697,36.2272,363.191,4.39252,30.8343,29.3957,27.4665
1980-08-17 21:32:52,1,0.2,0.766667,0.666667,0.323179,1,1,47228.1,44302.1,1698,0.96894151,0.98949373,252.12663,102.87663,35.8526,362.122,1.99162,29.4674,27.9228,27.0439
1980-08-17 21:35:34,1,-0.5,0.1,2.4,0.648074,1,1,54355.5,52830.7,1698,0.96894622,0.98930669,252.09879,102.87613,36.3142,363.57,8.58518,25.034,29.9557,29.5326
1980-08-17 21:38:16,1,-0.8,6.43333,-0.733333,1.02848,1,1,62741.1,53294.9,1698,0.96895093,0.98911965,252.07484,102.87563,29.3703,361.099,21.6718,18.9437,32.1836,29.662
1980-08-17 21:40:58,1,-0.8,7.93333,-0.0666667,0.24037,1,1,72076.6,38929.6,1698,0.96895409,0.9889949,252.05107,102.87529,28.4755,361.744,33.9504,16.3633,34.4949,25.3512
1980-08-17 21:43:40,1,0.2,8.36667,-0.466667,0.380058,1,1,70187.6,34897.3,1698,0.96895874,0.98880786,252.02322,102.87479,26.7306,361.004,33.8197,16.422,34.0399,24.0024
1980-08-17 21:46:22,1,-1.6,7.43333,-2.96667,0.253859,1,1,64312.9,38181.3,1698,0.96896344,0.98862082,251.99928,102.87428,25.6559,356.795,29.9549,11.2702,32.5842,25.1063
1980-08-17 21:49:04,1,-1.13333,8.6,-1.66667,0.194365,1,1,60975.9,35166.4,1698,0.96896815,0.98843378,251.97534,102.87378,25.5417,357.778,32.0112,13.6349,31.7276,24.0947
1980-08-17 21:51:46,1,-1.2,8.6,-1.0,0.0,1,1,60436.5,36001.4,1698,0.96897131,0.98830903,251.94766,102.87344,25.0315,355.314,31.756,13.8688,31.587,24.3791
1980-08-17 21:54:28,1,-2.23333,8.26667,-1.23333,0.316228,1,1,53853.5,34926.8,1698,0.96897602,0.98812199,251.92372,102.87294,26.1134,357.782,33.3869,12.0764,29.8171,24.0125
1980-08-17 21:57:10,1,-2.3,9.3,-0.166667,0.329983,1,1,73604.5,43643.7,1698,0.96898073,0.98793501,251.89978,102.87244,25.0763,356.987,32.0975,11.9877,34.8586,26.8422
1980-08-17 21:59:52,1,-1.83333,9.23333,-0.0333333,0.258199,1,1,60845.1,40113.3,1698,0.96898383,0.98781025,251.8721,102.8721,23.3173,360.502,32.3027,14.5388,31.6935,25.7337
1980-08-17 22:02:34,1,-2.7,9.7,0.133333,0.188562,1,1,57786.0,40362.0,1698,0.96898854,0.98762321,251.84816,102.8716,21.7737,356.101,35.5569,12.2863,30.8865,25.8134
1980-08-17 22:05:16,1,-4.33333,9.5,1.9,0.359011,1,1,45049.0,42773.9,1698,0.96899325,0.98743618,251.82422,102.87109,20.6811,355.846,36.9488,19.5053,27.271,26.5734
1980-08-17 22:07:58,1,-5.6,8.4,3.1,0.424264,1,1,69172.3,37892.6,1698,0.96899635,0.98731148,251.79654,102.87076,22.5687,349.099,29.1285,21.9881,33.7928,25.0112